EW0642 Weather Reports


time (UTC)temp
C
wind
direction
speed
KPH
gust
KPH
rain 1hr
cm
rain 24hr
cm
rain mn
cm
humidity
%
barometer
mb
20260507111024 11 312 1.6 8.0 0.00 0.41 0.10 88 1012.2
20260507110526 11 319 1.6 8.0 0.00 0.41 0.10 88 1012.2
20260507110024 11 316 1.6 4.8 0.00 0.41 0.10 89 1012.1
20260507105503 11 324 1.6 4.8 0.00 0.41 0.10 89 1012.0
20260507105003 11 319 1.6 4.8 0.00 0.41 0.10 89 1012.0
20260507104505 11 335 1.6 4.8 0.00 0.41 0.10 90 1011.9
20260507104024 11 341 0.0 4.8 0.00 0.41 0.10 90 1012.1
20260507103524 11 345 0.0 3.2 0.00 0.41 0.10 91 1011.9
20260507103003 11 348 0.0 3.2 0.00 0.41 0.10 91 1011.7
20260507102503 11 336 0.0 3.2 0.00 0.41 0.10 91 1011.7
20260507102025 11 305 0.0 3.2 0.00 0.41 0.10 91 1011.7
20260507101503 11 304 0.0 3.2 0.00 0.41 0.10 91 1011.8
20260507101025 11 0 0.0 0.0 0.00 0.41 0.10 91 1011.7
20260507100524 11 0 0.0 0.0 0.00 0.41 0.10 91 1011.7
20260507100004 11 349 0.0 1.6 0.00 0.41 0.10 91 1011.8
20260507095524 11 348 0.0 3.2 0.00 0.41 0.10 91 1011.8
20260507095003 11 338 0.0 3.2 0.00 0.41 0.10 91 1011.8
20260507094503 11 322 0.0 4.8 0.00 0.41 0.10 91 1011.6
20260507094004 11 326 0.0 4.8 0.00 0.41 0.10 91 1011.5
20260507093525 11 327 0.0 4.8 0.00 0.41 0.10 90 1011.6
20260507093003 11 317 0.0 4.8 0.00 0.41 0.10 90 1011.8
20260507092504 11 280 0.0 3.2 0.00 0.41 0.10 90 1012.0
20260507092003 12 238 0.0 3.2 0.00 0.41 0.10 90 1012.0
20260507091504 12 0 0.0 0.0 0.00 0.41 0.10 90 1011.8
20260507091003 12 0 0.0 0.0 0.00 0.41 0.10 90 1011.7
20260507090525 12 0 0.0 0.0 0.00 0.41 0.10 90 1011.6
20260507090024 12 0 0.0 0.0 0.00 0.41 0.10 90 1011.3
20260507085504 12 319 0.0 1.6 0.00 0.41 0.10 90 1011.4
20260507085005 12 317 0.0 3.2 0.00 0.41 0.10 90 1011.2
20260507084524 12 308 0.0 3.2 0.00 0.41 0.10 90 1011.3
20260507084024 12 282 0.0 1.6 0.00 0.41 0.10 90 1011.4
20260507083524 12 282 0.0 1.6 0.00 0.41 0.10 90 1011.2
20260507083005 12 289 0.0 3.2 0.00 0.41 0.10 89 1011.2
20260507082524 12 315 1.6 8.0 0.00 0.41 0.10 89 1011.1
20260507082024 12 333 1.6 8.0 0.00 0.41 0.10 89 1010.9
20260507081503 12 341 1.6 4.8 0.00 0.41 0.10 89 1010.9
20260507081003 12 339 1.6 6.4 0.00 0.41 0.10 89 1010.9
20260507080503 12 334 1.6 12.9 0.03 0.41 0.10 89 1010.8
20260507080003 12 329 3.2 14.5 0.03 0.41 0.10 89 1010.8
20260507075524 12 332 3.2 14.5 0.03 0.41 0.10 90 1010.9
20260507075003 12 332 3.2 11.3 0.03 0.41 0.10 90 1010.5
20260507074524 12 322 1.6 9.7 0.03 0.41 0.10 90 1010.4
20260507074003 12 333 1.6 12.9 0.03 0.41 0.10 90 1010.4
20260507073524 12 332 3.2 12.9 0.03 0.41 0.10 90 1010.4
20260507073024 12 324 3.2 12.9 0.03 0.41 0.10 90 1010.6
20260507072524 12 328 3.2 12.9 0.03 0.41 0.10 90 1010.5
20260507072003 12 333 1.6 8.0 0.03 0.41 0.10 90 1010.3
20260507071524 12 333 3.2 9.7 0.03 0.41 0.10 90 1010.2
20260507071024 12 331 1.6 9.7 0.03 0.41 0.10 90 1010.2
20260507070503 12 333 1.6 8.0 0.03 0.38 0.08 90 1010.2
20260507070024 12 337 1.6 8.0 0.03 0.38 0.08 90 1010.4
20260507065524 13 341 3.2 9.7 0.03 0.38 0.08 90 1010.4
20260507065024 13 328 3.2 9.7 0.03 0.38 0.08 90 1010.5
20260507064524 13 318 3.2 8.0 0.03 0.38 0.08 90 1010.3
20260507064024 13 321 3.2 9.7 0.03 0.38 0.08 90 1010.1
20260507063504 13 319 3.2 8.0 0.05 0.38 0.08 89 1010.1
20260507063004 13 338 3.2 8.0 0.05 0.38 0.08 89 1009.9
20260507062503 13 349 3.2 12.9 0.05 0.38 0.08 89 1010.0
20260507062024 13 342 3.2 16.1 0.05 0.38 0.08 89 1010.1
20260507061524 13 338 3.2 16.1 0.05 0.38 0.08 89 1010.3
20260507061003 13 330 3.2 8.0 0.05 0.38 0.08 89 1010.4
20260507060524 14 333 3.2 12.9 0.05 0.36 0.05 89 1010.2
20260507060024 14 343 1.6 12.9 0.05 0.36 0.05 89 1010.5
20260507055504 14 337 3.2 12.9 0.05 0.36 0.05 88 1010.4
20260507055003 14 336 4.8 12.9 0.05 0.36 0.05 88 1010.3
20260507054524 14 346 3.2 12.9 0.05 0.36 0.05 87 1010.3
20260507054003 15 336 4.8 16.1 0.05 0.36 0.05 86 1010.3
20260507053503 15 327 3.2 16.1 0.03 0.33 0.03 85 1010.3
20260507053024 15 312 1.6 6.4 0.03 0.33 0.03 84 1010.2
20260507052524 16 323 1.6 6.4 0.03 0.33 0.03 84 1010.4
20260507052003 16 330 1.6 6.4 0.03 0.33 0.03 82 1010.4
20260507051524 16 319 3.2 9.7 0.03 0.33 0.03 81 1010.7
20260507051025 16 316 3.2 14.5 0.03 0.33 0.03 80 1010.8
20260507050524 16 310 3.2 14.5 0.00 0.30 0.00 80 1010.7
20260507050025 16 339 3.2 12.9 0.00 0.30 0.00 81 1010.5
20260507045524 16 345 3.2 12.9 0.00 0.30 0.00 79 1010.2
20260507045024 17 334 3.2 14.5 0.00 0.30 0.00 81 1010.5
20260507044503 17 338 3.2 14.5 0.00 0.30 0.00 80 1010.2
20260507044024 17 317 4.8 20.9 0.00 0.30 0.00 81 1010.3
20260507043504 17 311 3.2 20.9 0.00 0.30 0.00 80 1010.2
20260507043025 17 328 1.6 6.4 0.00 0.30 0.00 80 1009.9
20260507042524 17 315 1.6 6.4 0.00 0.30 0.00 80 1009.9
20260507042024 17 302 3.2 12.9 0.00 0.30 0.00 79 1009.8
20260507041524 17 307 1.6 12.9 0.00 0.30 0.00 79 1009.8
20260507041003 17 311 0.0 3.2 0.00 0.30 0.00 79 1009.6
20260507040524 17 309 1.6 6.4 0.00 0.30 0.00 79 1009.3
20260507040004 17 311 1.6 6.4 0.00 0.30 0.00 78 1009.2
20260507035503 17 304 3.2 8.0 0.00 0.30 0.30 78 1009.6
20260507035003 17 305 3.2 8.0 0.00 0.30 0.30 78 1009.7
20260507034505 18 312 3.2 8.0 0.00 0.30 0.30 77 1009.9
20260507034004 18 320 1.6 6.4 0.00 0.30 0.30 77 1009.8
20260507033503 18 312 4.8 19.3 0.00 0.30 0.30 77 1009.8
20260507033003 18 309 4.8 19.3 0.00 0.30 0.30 76 1009.6
20260507032524 18 312 3.2 14.5 0.00 0.30 0.30 77 1009.6
20260507032025 18 317 3.2 14.5 0.00 0.30 0.30 77 1009.5
20260507031524 18 317 4.8 14.5 0.00 0.30 0.30 77 1009.5
20260507031024 18 317 4.8 14.5 0.00 0.30 0.30 78 1009.5
20260507030503 18 317 3.2 14.5 0.00 0.30 0.30 80 1009.4
20260507030005 18 315 4.8 16.1 0.00 0.30 0.30 82 1009.3
20260507025503 18 309 3.2 16.1 0.00 0.30 0.30 84 1009.3
20260507025024 19 309 3.2 9.7 0.00 0.30 0.30 86 1009.3
20260507024524 19 301 3.2 8.0 0.00 0.30 0.30 86 1009.2
20260507024003 19 300 1.6 4.8 0.00 0.30 0.30 86 1009.0
20260507023524 19 340 0.0 3.2 0.00 0.30 0.30 85 1008.9
20260507023003 19 327 0.0 3.2 0.00 0.30 0.30 85 1008.9
20260507022503 19 289 0.0 4.8 0.00 0.30 0.30 85 1008.9
20260507022003 19 277 1.6 4.8 0.00 0.30 0.30 85 1008.9
20260507021503 19 270 0.0 4.8 0.00 0.30 0.30 85 1008.9
20260507021024 19 0 0.0 0.0 0.00 0.30 0.30 84 1008.8
20260507020525 19 0 0.0 0.0 0.00 0.30 0.30 84 1008.6
20260507020024 19 0 0.0 0.0 0.00 0.30 0.30 84 1008.6
20260507015524 19 0 0.0 0.0 0.00 0.30 0.30 84 1008.5
20260507015025 19 150 0.0 4.8 0.00 0.30 0.30 84 1008.7
20260507014503 19 118 1.6 4.8 0.00 0.30 0.30 84 1009.0
20260507014003 19 108 0.0 4.8 0.00 0.30 0.30 84 1009.0
20260507013524 20 0 0.0 0.0 0.00 0.30 0.30 84 1009.2
20260507013024 20 0 0.0 0.0 0.00 0.30 0.30 83 1009.2
20260507012524 20 0 0.0 0.0 0.00 0.30 0.30 83 1009.1
20260507012003 20 172 0.0 3.2 0.00 0.30 0.30 83 1009.3
20260507011524 20 184 1.6 4.8 0.00 0.30 0.30 83 1009.3
20260507010524 20 212 0.0 3.2 0.00 0.30 0.30 82 1009.2
20260507010004 20 198 1.6 3.2 0.00 0.30 0.30 82 1009.0
20260507005505 20 166 1.6 4.8 0.00 0.30 0.30 82 1009.0
20260507005003 20 160 0.0 4.8 0.00 0.30 0.30 82 1008.8
20260507004524 20 144 0.0 3.2 0.00 0.30 0.30 82 1008.8
20260507004004 20 133 1.6 3.2 0.00 0.30 0.30 82 1008.5
20260507003504 20 133 0.0 3.2 0.00 0.30 0.30 82 1008.7
20260507003003 20 169 1.6 6.4 0.00 0.30 0.30 82 1008.7
20260507002525 20 173 1.6 8.0 0.00 0.30 0.30 81 1008.6
20260507002004 20 179 1.6 8.0 0.00 0.30 0.30 81 1008.6
20260507001524 20 176 1.6 8.0 0.00 0.30 0.30 81 1008.7
20260507001003 20 170 1.6 9.7 0.00 0.30 0.30 81 1008.7
20260507000505 20 170 1.6 9.7 0.00 0.30 0.30 81 1008.6
20260507000024 20 184 1.6 6.4 0.00 0.30 0.30 81 1008.6
20260506235504 20 196 1.6 12.9 0.00 0.30 0.30 80 1008.7
20260506235003 20 186 1.6 12.9 0.00 0.30 0.30 80 1008.6
20260506234524 20 176 1.6 4.8 0.00 0.30 0.30 80 1008.4
20260506234004 20 187 1.6 8.0 0.00 0.30 0.30 79 1008.4
20260506233524 20 186 1.6 8.0 0.00 0.30 0.30 79 1008.4
20260506233024 21 175 1.6 8.0 0.00 0.30 0.30 79 1008.2
20260506232524 21 189 1.6 8.0 0.00 0.30 0.30 79 1008.1
20260506232003 21 188 1.6 8.0 0.00 0.30 0.30 78 1008.1
20260506231503 21 184 3.2 9.7 0.00 0.30 0.30 78 1008.0
20260506231025 21 188 3.2 9.7 0.00 0.30 0.30 78 1008.1
20260506230525 21 177 1.6 8.0 0.00 0.30 0.30 79 1008.0
20260506230003 21 183 3.2 11.3 0.00 0.30 0.30 78 1008.0
20260506225524 21 193 3.2 11.3 0.00 0.30 0.30 78 1008.2
20260506225024 21 188 4.8 14.5 0.00 0.30 0.30 78 1008.0
20260506224503 21 173 3.2 14.5 0.00 0.30 0.30 77 1008.0
20260506224025 21 182 1.6 6.4 0.00 0.30 0.30 78 1008.1
20260506223503 21 196 3.2 14.5 0.00 0.30 0.30 77 1008.1
20260506223004 21 190 3.2 14.5 0.00 0.30 0.30 78 1008.1
20260506222504 21 180 3.2 9.7 0.00 0.30 0.30 77 1008.1
20260506222024 21 176 3.2 11.3 0.00 0.30 0.30 77 1008.2
20260506221504 21 199 4.8 12.9 0.00 0.30 0.30 77 1008.1
20260506221025 21 201 4.8 12.9 0.00 0.30 0.30 76 1008.2
20260506220524 21 187 4.8 14.5 0.00 0.30 0.30 76 1008.2
20260506220004 21 182 3.2 14.5 0.00 0.30 0.30 76 1008.1
20260506215503 21 188 4.8 17.7 0.00 0.30 0.30 76 1008.2
20260506215003 21 185 4.8 17.7 0.00 0.30 0.30 75 1008.1
20260506214525 21 177 4.8 14.5 0.00 0.30 0.30 75 1008.0
20260506214004 21 177 6.4 16.1 0.00 0.30 0.30 75 1007.9
20260506213503 22 182 4.8 16.1 0.00 0.30 0.30 74 1008.0
20260506213003 22 184 4.8 16.1 0.00 0.30 0.30 76 1007.9
20260506212524 22 196 6.4 16.1 0.00 0.30 0.30 75 1007.8
20260506212024 22 210 4.8 14.5 0.00 0.30 0.30 75 1007.8
20260506211524 22 201 3.2 14.5 0.00 0.30 0.30 75 1007.9
20260506211025 21 198 4.8 14.5 0.00 0.30 0.30 74 1007.8
20260506210524 22 195 4.8 14.5 0.00 0.30 0.30 75 1007.7
20260506210024 22 195 3.2 14.5 0.00 0.30 0.30 75 1007.6
20260506205524 21 188 4.8 12.9 0.00 0.30 0.30 75 1007.6
20260506205005 21 186 8.0 24.1 0.00 0.30 0.30 74 1007.5
20260506204524 22 184 8.0 24.1 0.00 0.30 0.30 74 1007.6
20260506204025 22 181 8.0 19.3 0.00 0.30 0.30 74 1007.6
20260506203503 22 186 6.4 19.3 0.00 0.30 0.30 73 1007.6
20260506203003 22 189 6.4 17.7 0.00 0.30 0.30 74 1007.6
20260506202503 21 179 8.0 25.7 0.00 0.30 0.30 74 1007.4
20260506202004 22 182 8.0 25.7 0.00 0.30 0.30 73 1007.7
20260506201503 22 196 8.0 25.7 0.00 0.30 0.30 72 1007.6
20260506201004 22 179 8.0 22.5 0.00 0.30 0.30 74 1007.6
20260506200524 22 177 8.0 22.5 0.00 0.30 0.30 73 1007.4
20260506200025 22 186 8.0 22.5 0.00 0.30 0.30 74 1007.5
20260506195524 21 181 8.0 19.3 0.00 0.30 0.30 74 1007.5
20260506195024 21 177 9.7 27.4 0.00 0.30 0.30 74 1007.5
20260506194524 21 174 9.7 27.4 0.00 0.30 0.30 74 1007.6
20260506194003 21 185 8.0 25.7 0.00 0.30 0.30 74 1007.7
20260506193525 21 186 11.3 25.7 0.00 0.30 0.30 74 1007.6
20260506193004 22 196 9.7 24.1 0.00 0.30 0.30 73 1007.7
20260506192503 22 208 8.0 19.3 0.00 0.30 0.30 75 1007.7
20260506192003 21 183 8.0 19.3 0.00 0.30 0.30 75 1007.8
20260506191503 21 179 6.4 19.3 0.00 0.30 0.30 77 1007.9
20260506191024 21 185 6.4 22.5 0.00 0.30 0.30 77 1007.9
20260506190524 20 183 11.3 22.5 0.00 0.30 0.30 77 1008.0
20260506190024 20 174 8.0 20.9 0.00 0.30 0.30 77 1008.1
20260506185503 20 170 8.0 33.8 0.00 0.30 0.30 78 1008.1
20260506185004 20 175 9.7 33.8 0.00 0.30 0.30 77 1008.2
20260506184503 20 182 11.3 35.4 0.00 0.30 0.30 78 1008.3
20260506184024 20 184 9.7 35.4 0.03 0.30 0.30 77 1008.3
20260506183503 20 175 6.4 20.9 0.03 0.30 0.30 78 1008.3
20260506183024 20 184 8.0 20.9 0.03 0.30 0.30 78 1008.5
20260506182503 20 194 8.0 22.5 0.03 0.30 0.30 79 1008.5
20260506182003 20 190 9.7 27.4 0.03 0.30 0.30 80 1008.5
20260506181524 20 189 9.7 27.4 0.03 0.30 0.30 80 1008.6
20260506181024 20 184 9.7 32.2 0.03 0.30 0.30 81 1008.6
20260506180524 19 180 9.7 32.2 0.03 0.30 0.30 82 1008.7
20260506180025 19 176 8.0 27.4 0.03 0.30 0.30 81 1008.8
20260506175524 19 179 8.0 29.0 0.05 0.30 0.30 82 1008.7
20260506175025 18 188 11.3 33.8 0.05 0.30 0.30 83 1008.7
20260506174503 18 183 9.7 33.8 0.05 0.30 0.30 83 1008.8
20260506174004 18 183 8.0 32.2 0.03 0.28 0.28 84 1008.8
20260506173526 18 194 8.0 24.1 0.03 0.28 0.28 85 1008.7
20260506173005 18 188 8.0 22.5 0.05 0.28 0.28 86 1008.9
20260506172505 18 176 9.7 32.2 0.05 0.28 0.28 86 1009.0
20260506172027 18 177 9.7 32.2 0.05 0.28 0.28 87 1009.0
20260506171526 18 187 8.0 20.9 0.05 0.28 0.28 88 1009.0
20260506171026 18 185 8.0 19.3 0.05 0.28 0.28 89 1008.9
20260506170506 18 169 6.4 16.1 0.08 0.28 0.28 89 1008.9
20260506170005 17 173 6.4 16.1 0.08 0.28 0.28 90 1009.0
20260506165526 17 165 6.4 20.9 0.05 0.25 0.25 90 1009.0
20260506165005 17 174 8.0 20.9 0.05 0.25 0.25 90 1009.2
20260506164506 17 182 6.4 17.7 0.08 0.25 0.25 91 1009.2
20260506164006 17 179 6.4 29.0 0.08 0.25 0.25 91 1009.2
20260506163528 17 177 8.0 29.0 0.08 0.25 0.25 91 1009.1
20260506163026 17 174 6.4 20.9 0.05 0.23 0.23 91 1009.1
20260506162526 17 171 6.4 20.9 0.08 0.23 0.23 92 1009.1
20260506162026 17 155 4.8 12.9 0.08 0.23 0.23 92 1009.1
20260506161505 17 142 4.8 19.3 0.08 0.23 0.23 93 1009.1
20260506161026 16 148 6.4 19.3 0.10 0.23 0.23 92 1009.2
20260506160526 16 165 6.4 16.1 0.08 0.20 0.20 92 1009.5
20260506160006 16 174 6.4 25.7 0.08 0.20 0.20 92 1009.6
20260506155526 16 168 4.8 25.7 0.10 0.20 0.20 92 1009.6
20260506155005 16 153 4.8 19.3 0.10 0.20 0.20 92 1009.5
20260506154526 16 166 4.8 16.1 0.08 0.18 0.18 92 1009.6
20260506154026 16 172 4.8 12.9 0.10 0.18 0.18 92 1009.4
20260506153528 16 161 4.8 11.3 0.10 0.18 0.18 92 1009.3
20260506153005 16 155 4.8 17.7 0.10 0.18 0.18 92 1009.7
20260506152506 16 163 4.8 17.7 0.10 0.15 0.15 92 1009.8
20260506152027 16 172 4.8 16.1 0.10 0.15 0.15 92 1010.0
20260506151505 16 178 6.4 16.1 0.10 0.15 0.15 91 1010.2
20260506151027 16 179 6.4 24.1 0.10 0.13 0.13 91 1010.2
20260506150505 16 172 4.8 24.1 0.10 0.13 0.13 91 1010.2
20260506150026 16 158 3.2 14.5 0.10 0.13 0.13 90 1010.2
20260506145505 16 164 4.8 17.7 0.08 0.10 0.10 90 1010.3
20260506145005 16 171 6.4 17.7 0.10 0.10 0.10 89 1010.2
20260506144505 16 168 6.4 14.5 0.10 0.10 0.10 88 1010.4
20260506144026 16 165 4.8 14.5 0.08 0.08 0.08 88 1010.3
20260506143505 17 162 3.2 14.5 0.08 0.08 0.08 87 1010.2
20260506143026 17 148 3.2 16.1 0.08 0.08 0.08 87 1010.2
20260506142526 17 156 3.2 16.1 0.05 0.05 0.08 86 1010.1
20260506142005 17 164 4.8 12.9 0.05 0.05 0.05 86 1010.2
20260506141526 17 171 4.8 12.9 0.05 0.05 0.05 85 1010.2
20260506141005 17 173 3.2 11.3 0.03 0.03 0.03 84 1010.4
20260506140506 17 176 4.8 17.7 0.03 0.03 0.03 82 1010.3
20260506140006 17 184 6.4 17.7 0.03 0.03 0.03 81 1010.5
20260506135505 18 175 4.8 16.1 0.03 0.03 0.03 81 1010.5
20260506135026 18 173 6.4 20.9 0.00 0.00 0.00 80 1010.6
20260506134505 18 176 6.4 20.9 0.00 0.00 0.00 78 1010.7
20260506134026 18 180 4.8 19.3 0.00 0.00 0.00 78 1010.7
20260506133505 18 181 4.8 14.5 0.00 0.00 0.00 77 1010.5
20260506133026 18 175 4.8 19.3 0.00 0.00 0.00 78 1010.4
20260506132526 18 168 6.4 19.3 0.00 0.00 0.00 77 1010.3
20260506132027 18 169 4.8 19.3 0.00 0.00 0.00 77 1010.2
20260506131527 18 166 4.8 12.9 0.00 0.00 0.00 77 1010.2
20260506131026 18 168 4.8 14.5 0.00 0.00 0.00 76 1010.0
20260506130505 18 179 6.4 16.1 0.00 0.00 0.00 75 1010.0
20260506130006 18 177 6.4 24.1 0.00 0.00 0.00 75 1010.0
20260506125507 18 176 4.8 24.1 0.00 0.00 0.00 75 1010.0
20260506125005 18 169 4.8 19.3 0.00 0.00 0.00 76 1010.0
20260506124527 18 165 6.4 19.3 0.00 0.00 0.00 75 1010.1
20260506124028 18 161 4.8 14.5 0.00 0.00 0.00 76 1010.2
20260506123505 18 161 4.8 19.3 0.00 0.00 0.00 76 1010.2
20260506123005 18 167 6.4 19.3 0.00 0.00 0.00 76 1010.3
20260506122526 18 173 8.0 22.5 0.00 0.00 0.00 76 1010.4
20260506122005 18 177 6.4 22.5 0.00 0.00 0.00 76 1010.4
20260506121526 18 180 4.8 16.1 0.00 0.00 0.00 76 1010.4
20260506121027 18 168 6.4 16.1 0.00 0.00 0.00 75 1010.4
20260506120505 18 173 8.0 22.5 0.00 0.00 0.00 75 1010.3
20260506120005 18 177 9.7 22.5 0.00 0.00 0.00 75 1010.2
20260506115505 18 170 8.0 17.7 0.00 0.00 0.00 75 1010.2
20260506115026 18 163 6.4 19.3 0.00 0.00 0.00 75 1010.1
20260506114526 18 177 6.4 19.3 0.00 0.00 0.00 75 1010.1
20260506114026 18 169 8.0 20.9 0.00 0.00 0.00 75 1010.1
20260506113526 18 159 8.0 20.9 0.00 0.00 0.00 75 1010.0
20260506113005 18 168 8.0 22.5 0.00 0.00 0.00 75 1009.8
20260506112505 18 172 8.0 24.1 0.00 0.00 0.00 76 1009.9
20260506112026 18 172 6.4 24.1 0.00 0.00 0.00 76 1009.9
20260506111526 18 163 4.8 22.5 0.00 0.00 0.00 77 1009.7